Location: Unspecified
(44.0704°N, 88.6889°W)
Time: 10:35:23
(UTC+02:00)

Altair - Pass Details

Date: 22 June 2019
Orbit: 1501 x 1683 km, 47.2° (Epoch: 24 July)

Event Time Altitude Azimuth Distance (km) Brightness Sun altitude
Rises 00:44:46 0° 165° (SSE) 4,660 9.8 28.7°
Reaches altitude 10° 00:51:57 10° 128° (SE) 3,731 9.1 27.4°
Maximum altitude 00:53:11 10° 120° (ESE) 3,717 9.1 27.2°
Drops below altitude 10° 00:54:25 10° 112° (ESE) 3,752 9.1 27.0°
Sets 01:01:44 0° 76° (ENE) 4,802 9.6 25.7°
